Location: Recife
(8.0585°S, 34.8848°W)
Time: 09:44:12
(UTC-03:00)

Courier 1B Rocket - Pass Details

Date: 21 April 2026
Orbit: 920 x 1201 km, 28.2° (Epoch: 13 May)

Event Time Altitude Azimuth Distance (km) Brightness Sun altitude
Rises 11:54:55 0° 243° (WSW) 3,921 8.2 68.0°
Reaches altitude 10° 11:57:38 10° 243° (WSW) 2,999 7.7 67.7°
Maximum altitude 12:05:08 84° 330° (NNW) 1,179 7.4 66.8°
Drops below altitude 10° 12:12:58 10° 58° (ENE) 3,120 7.8 65.8°
Sets 12:15:50 0° 59° (ENE) 4,087 8.2 65.4°
